Location: Arundel
(45.9667°N, 74.6189°W)
Time: 08:57:13
(UTC+00:00)

BlueWalker 3 - Visible Passes

Search period start: 04 December 2022 00:00
Search period end: 14 December 2022 00:00
Orbit: 501 x 519 km, 53.2° (Epoch: 03 December)

Date Brightness Start Highest point End Pass type
(mag) Time Alt. Az. Time Alt. Az. Time Alt. Az.
04 Dec 3.2 21:43:57 10° WNW 21:47:23 28° N 21:50:48 10° ENE visible
04 Dec 3.0 23:23:07 10° NW 23:26:02 34° N 23:26:02 34° N visible
05 Dec 2.6 23:04:43 10° NW 23:08:25 38° NNE 23:08:29 38° NNE visible
06 Dec 2.6 22:46:20 10° NW 22:50:02 39° NNE 22:51:01 33° NE visible
07 Dec 4.8 00:25:01 10° WNW 00:25:51 16° WNW 00:25:51 16° WNW visible
07 Dec 2.5 22:27:55 10° NW 22:31:39 40° NNE 22:33:39 22° ENE visible
08 Dec 4.1 00:06:37 10° WNW 00:08:30 26° WNW 00:08:30 26° WNW visible
08 Dec 2.5 22:09:31 10° NW 22:13:15 42° NNE 22:16:24 13° E visible
08 Dec 3.1 23:48:13 10° WNW 23:51:16 42° WSW 23:51:16 42° WSW visible
09 Dec 2.4 21:51:05 10° NW 21:54:51 43° NNE 21:58:35 10° E visible
09 Dec 2.8 23:29:49 10° WNW 23:33:33 45° SW 23:34:14 40° S visible
10 Dec 3.0 23:11:24 10° WNW 23:15:08 43° SW 23:17:27 20° SSE visible
11 Dec 3.2 22:53:00 10° WNW 22:56:41 40° SW 23:00:20 10° SSE visible
12 Dec 3.4 22:34:35 10° WNW 22:38:14 38° SW 22:41:51 10° SSE visible
13 Dec 3.7 22:16:11 10° WNW 22:19:47 36° SW 22:23:21 10° SSE visible
